Total_Precipitation_Accumulation
1.24 1.34 1.39 1.40 1.33 1.45 1.47 1.44 1.50 1.55 1.53 1.59 1.70 1.83 1.84 1.88 1.97 2.05 1.90 1.98 2.09 2.26 2.17 2.16 2.21 2.31 2.28 2.19 2.26 2.34 2.48 2.75 2.70 2.23 2.12 2.13 1.98 1.79 1.72 1.63 1.58 1.66 1.67
1.24 1.37 1.45 1.58 1.53 1.47 1.44 1.48 1.53 1.66 1.74 1.72 1.80 1.86 1.74 1.78 1.98 2.05 2.01 2.01 2.05 2.10 2.30 2.53 2.47 2.49 2.44 2.28 2.37 2.33 2.39 2.68 2.60 2.37 2.38 2.39 2.32 2.12 1.97 1.79 1.62 1.60 1.68
1.32 1.40 1.55 1.63 1.53 1.45 1.55 1.65 1.68 1.83 2.00 2.09 2.09 1.93 1.83 1.81 1.89 1.98 2.07 2.08 2.10 2.18 2.34 2.43 2.46 2.63 2.50 2.39 2.32 2.29 2.38 2.54 2.64 2.46 2.41 2.57 2.47 2.23 2.09 1.83 1.64 1.71 1.55
1.43 1.60 1.69 1.72 1.64 1.58 1.67 1.79 1.81 1.88 2.05 2.20 2.16 2.08 2.04 1.94 1.81 1.78 1.83 1.91 2.08 2.24 2.29 2.22 2.31 2.53 2.58 2.56 2.37 2.32 2.44 2.57 2.61 2.55 2.47 2.57 2.59 2.53 2.36 2.14 2.01 1.86 1.69
1.57 1.72 1.77 1.90 1.92 1.93 2.02 2.02 1.94 1.95 1.98 2.15 2.20 2.22 2.19 2.03 1.78 1.82 1.95 1.94 2.12 2.15 2.08 1.97 1.97 2.19 2.43 2.50 2.27 2.26 2.40 2.43 2.43 2.46 2.46 2.51 2.55 2.70 2.58 2.30 2.07 1.93 1.70
1.76 2.06 2.09 2.13 2.13 2.21 2.37 2.45 2.33 2.29 2.37 2.42 2.35 2.29 2.22 1.85 1.95 1.99 1.97 1.99 2.12 2.13 2.07 1.99 1.87 1.86 1.87 2.01 2.12 2.24 2.37 2.34 2.34 2.49 2.65 2.69 2.68 2.69 2.70 2.49 2.23 1.99 1.81
1.90 2.15 2.29 2.34 2.37 2.47 2.58 2.59 2.53 2.58 2.73 2.75 2.64 2.46 2.30 2.21 2.13 1.91 1.85 1.75 1.80 1.85 1.92 1.91 1.64 1.49 1.60 1.52 1.70 1.87 1.99 2.07 2.10 2.26 2.42 2.52 2.64 2.78 2.82 2.59 2.39 2.19 1.94
2.14 2.28 2.39 2.40 2.42 2.48 2.54 2.44 2.45 2.57 2.64 2.68 2.62 2.48 2.36 2.27 2.13 1.79 1.72 1.50 1.54 1.58 1.64 1.65 1.60 1.52 1.50 1.57 1.59 1.57 1.55 1.63 1.75 1.77 1.88 2.12 2.37 2.58 2.74 2.65 2.55 2.26 1.96
2.20 2.23 2.21 2.30 2.39 2.45 2.46 2.48 2.50 2.51 2.39 2.29 2.24 2.24 2.22 2.23 2.16 1.84 1.67 1.47 1.55 1.57 1.58 1.61 1.65 1.57 1.72 1.63 1.56 1.58 1.60 1.61 1.65 1.70 1.70 1.85 2.11 2.29 2.41 2.50 2.46 2.30 2.04
2.24 2.26 2.23 2.32 2.42 2.47 2.53 2.57 2.51 2.41 2.32 2.25 2.12 2.13 2.12 2.10 2.13 1.78 1.61 1.47 1.56 1.58 1.63 1.63 1.63 1.53 1.56 1.45 1.38 1.50 1.50 1.53 1.61 1.62 1.62 1.61 1.69 2.00 2.34 2.19 2.21 2.25 2.03
2.11 2.22 2.35 2.51 2.59 2.62 2.63 2.56 2.47 2.35 2.34 2.31 2.21 2.13 2.10 2.05 2.07 1.79 1.60 1.40 1.55 1.75 1.73 1.66 1.66 1.59 1.31 1.24 1.22 1.24 1.29 1.36 1.47 1.45 1.38 1.38 1.48 1.63 1.88 1.97 1.96 1.95 1.91
1.90 2.03 2.09 2.23 2.34 2.36 2.44 2.40 2.41 2.34 2.25 2.18 2.08 1.97 1.92 1.93 1.83 1.71 1.53 1.37 1.43 1.58 1.68 1.69 1.70 1.58 1.30 1.18 1.07 1.05 1.07 1.03 1.09 1.20 1.24 1.26 1.31 1.43 1.58 1.73 1.84 1.90 1.81
1.76 1.89 2.01 2.08 2.26 2.35 2.37 2.31 2.23 2.16 2.05 1.95 1.86 1.78 1.79 1.83 1.78 1.58 1.37 1.28 1.31 1.38 1.53 1.69 1.59 1.41 1.23 1.07 1.01 0.97 0.92 0.86 0.97 1.12 1.19 1.19 1.19 1.29 1.54 1.83 2.00 2.09 2.02
1.77 1.81 1.90 1.99 2.11 2.31 2.33 2.18 2.03 1.90 1.81 1.78 1.74 1.76 1.82 1.85 1.77 1.59 1.37 1.23 1.25 1.30 1.36 1.42 1.41 1.38 1.30 1.18 1.07 0.96 0.87 0.92 1.02 1.10 1.21 1.34 1.46 1.55 1.63 1.73 1.91 1.99 2.02
1.51 1.49 1.52 1.68 1.84 1.99 2.02 1.94 1.77 1.66 1.74 1.77 1.74 1.72 1.66 1.60 1.67 1.60 1.40 1.32 1.33 1.36 1.30 1.31 1.33 1.42 1.44 1.43 1.39 1.29 1.22 1.20 1.15 1.14 1.28 1.43 1.44 1.45 1.47 1.60 1.78 1.84 1.73
1.53 1.43 1.41 1.41 1.48 1.67 1.87 1.93 1.79 1.57 1.60 1.56 1.50 1.44 1.41 1.38 1.38 1.38 1.31 1.26 1.30 1.31 1.21 1.31 1.45 1.53 1.60 1.61 1.60 1.49 1.35 1.22 1.16 1.19 1.27 1.37 1.42 1.44 1.47 1.60 1.74 1.76 1.62
1.51 1.46 1.39 1.34 1.38 1.50 1.73 1.94 1.99 1.76 1.53 1.41 1.26 1.14 1.08 1.07 1.10 1.16 1.22 1.18 1.16 1.11 1.01 1.16 1.33 1.40 1.47 1.49 1.50 1.43 1.38 1.34 1.32 1.35 1.40 1.46 1.52 1.52 1.54 1.57 1.67 1.72 1.61
1.40 1.38 1.26 1.23 1.30 1.42 1.65 1.92 2.08 2.02 1.81 1.52 1.24 1.05 0.99 0.94 0.95 1.03 1.10 1.05 0.99 0.93 0.86 0.99 1.12 1.24 1.35 1.48 1.55 1.53 1.50 1.48 1.43 1.40 1.47 1.50 1.56 1.61 1.58 1.53 1.59 1.66 1.63
1.30 1.32 1.27 1.24 1.26 1.30 1.52 1.82 2.02 2.08 1.97 1.76 1.41 1.11 0.99 0.92 0.91 1.00 1.00 0.92 0.93 0.91 0.89 0.92 0.98 1.13 1.31 1.47 1.60 1.67 1.68 1.62 1.50 1.47 1.48 1.51 1.51 1.59 1.57 1.50 1.54 1.67 1.68
1.14 1.15 1.06 1.04 1.09 1.12 1.23 1.43 1.71 1.89 1.86 1.76 1.51 1.09 0.82 0.77 0.83 1.00 1.05 1.08 1.07 0.99 0.95 0.97 1.02 1.13 1.30 1.48 1.57 1.59 1.64 1.59 1.55 1.51 1.47 1.52 1.56 1.57 1.54 1.50 1.52 1.60 1.56
1.09 1.08 0.98 0.89 0.94 1.01 1.10 1.30 1.57 1.77 1.73 1.63 1.46 1.12 0.90 0.85 0.95 1.02 1.12 1.17 1.17 1.11 1.08 1.03 1.01 1.08 1.24 1.38 1.45 1.49 1.53 1.51 1.45 1.44 1.43 1.47 1.54 1.59 1.64 1.62 1.58 1.61 1.62
0.89 0.92 0.88 0.86 0.93 0.98 1.02 1.21 1.47 1.63 1.57 1.48 1.40 1.22 1.10 1.06 1.14 1.20 1.21 1.17 1.11 1.05 1.03 1.07 1.07 1.13 1.22 1.28 1.34 1.45 1.52 1.50 1.46 1.42 1.43 1.46 1.52 1.55 1.61 1.65 1.61 1.62 1.64
0.76 0.77 0.76 0.77 0.83 0.90 1.02 1.20 1.35 1.41 1.39 1.38 1.26 1.13 1.12 1.15 1.15 1.17 1.19 1.15 1.08 1.02 1.00 1.05 1.11 1.16 1.21 1.22 1.24 1.32 1.39 1.39 1.41 1.40 1.46 1.52 1.54 1.55 1.59 1.61 1.60 1.65 1.64
0.79 0.84 0.85 0.88 0.92 1.02 1.13 1.23 1.28 1.25 1.20 1.19 1.17 1.17 1.18 1.20 1.15 1.13 1.15 1.14 1.13 1.12 1.12 1.10 1.11 1.10 1.12 1.15 1.16 1.16 1.20 1.22 1.22 1.27 1.33 1.43 1.50 1.51 1.52 1.56 1.56 1.58 1.62
0.72 0.81 0.88 1.00 1.06 1.12 1.18 1.22 1.23 1.20 1.13 1.10 1.11 1.15 1.16 1.13 1.16 1.17 1.16 1.14 1.12 1.09 1.03 1.02 1.01 0.98 0.95 0.95 0.93 0.95 1.05 1.03 0.99 1.03 1.11 1.27 1.35 1.39 1.40 1.46 1.51 1.56 1.61
0.73 0.74 0.82 0.89 0.95 1.03 1.14 1.24 1.23 1.16 1.08 1.06 1.10 1.13 1.12 1.09 1.10 1.10 1.10 1.12 1.12 1.09 1.07 1.04 0.97 0.96 0.95 0.93 0.91 0.96 0.95 0.86 0.83 0.88 0.90 1.01 1.17 1.25 1.31 1.38 1.42 1.53 1.59